STARLINK J (44243 NORAD) Tracking and Keplerian Element Data

This shows tracking and keplerian element data for the satellite.

Feedback or suggestion? Click here.




ElementValue
Catalog44243
NameSTARLINK J
Epoch Orbit470
Epoch Day173.96994096
Epoch Year2019
RAAN33.4672
Inclination53.0044
Eccentricity0.0007407
Argument of Perigee359.068
Mean Anonmoly1.0309
Mean Motion15.42278893
Decay Rate7.07E-06
L11 44243U 19029J 19173.96994096 .00000707 00000-0 25702-4 0 9995
L22 44243 53.0044 33.4672 0007407 359.0680 1.0309 15.42278893 4702

Live tracking and technical data element details for STARLINK J (NORAD 44243). STARLINK J can be tracked NOW for your location showing map with azimuth and elevation plus other details from your city location.

Track the satellite on the map from your city or location and see movement details for azimuth, elevation, latitude, longitude, range, height, and movement on the map or in text.







IsCatalogInMostPopularTable: catalog: 44243, numindb: 44
Update: records affected: 1



GetName: 44243 STARLINK J

Hit Count: updated at: Tue, 16 Jul 2019 20:16:55 GMT